This is the latest recevied weather packets stored in our database for station/object HI3LT-13. If no packets are shown the sender has not sent any weather packets the latest 10 day(s).
| Time | Temp. | Humidity | Pressure | Rain* | Wind** | Luminosity | Snow |
|---|---|---|---|---|---|---|---|
| 1788192335 | 33.89° C | 61% | 1014 hPa | 0.51 mm | - | - | - |
| 1788191734 | 33.89° C | 61% | 1014 hPa | 0.51 mm | - | - | - |
| 1788191138 | 33.89° C | 61% | 1014 hPa | 1.02 mm | - | - | - |
| 1788190533 | 33.89° C | 62% | 1014 hPa | 0 mm | - | - | - |
| 1788189933 | 32.78° C | 67% | 1014 hPa | 0 mm | - | - | - |
| 1788189332 | 32.78° C | 68% | 1014 hPa | 0 mm | - | - | - |
| 1788188732 | 32.78° C | 70% | 1014 hPa | 0 mm | - | - | - |
| 1788188131 | 32.78° C | 70% | 1014 hPa | 0 mm | - | - | - |
| 1788187530 | 32.78° C | 70% | 1014 hPa | 0 mm | - | - | - |
| 1788186930 | 31.11° C | 77% | 1014 hPa | 0 mm | - | - | - |
| 1788186329 | 30.56° C | 77% | 1014 hPa | 0 mm | - | - | - |
| 1788185729 | 31.11° C | 78% | 1014 hPa | 0 mm | - | - | - |
| 1788185128 | 31.11° C | 81% | 1014 hPa | 0 mm | - | - | - |
| 1788184528 | 31.11° C | 82% | 1014 hPa | 0 mm | - | - | - |
| 1788183927 | 28.89° C | 82% | 1014 hPa | 0 mm | - | - | - |
| 1788183326 | 28.89° C | 82% | 1014 hPa | 0 mm | - | - | - |
| 1788182726 | 31.11° C | 86% | 1014 hPa | 0 mm | - | - | - |
| 1788182125 | 31.67° C | 88% | 1014 hPa | 0 mm | - | - | - |
| 1788181525 | 31.11° C | 91% | 1014 hPa | 0 mm | - | - | - |
| 1788180926 | 25° C | 89% | 1014 hPa | 0 mm | - | - | - |
| 1788180324 | 30° C | 93% | 1014 hPa | 0 mm | - | - | - |
| 1788179723 | 24.44° C | 93% | 1014 hPa | 0 mm | - | - | - |
| 1788179123 | 26.11° C | 94% | 1014 hPa | 0 mm | - | - | - |
| 1788178522 | 25.56° C | 94% | 1014 hPa | 0 mm | - | - | - |
| 1788177921 | 25.56° C | 94% | 1014 hPa | 0 mm | - | - | - |
* Rain latest hour (hover to see other rain measurements)
** Current wind speed in m/s (hover to see current wind gust speed)